Sarasota, FL

12:17 PM EST on December 12, 2019 (GMT -0500)
Sarasota-bradenton

Weather History for KSRQ - August, 2019

Change the Weather History Date:

Saturday, August 10, 2019

  Actual Average Record
Temperature  
Mean Temperature 83 °F 82 °F  
Max Temperature 87 °F 90 °F 97 °F (1993)
Min Temperature 78 °F 75 °F 68 °F (1975)
Degree Days  
Heating Degree Days 0 0  
Month to date heating degree days 0 0  
Since 1 June heating degree days 0 0  
Since 1 July heating degree days 0 0  
Cooling Degree Days 18 17  
Month to date cooling degree days 188 170  
Year to date cooling degree days 2459 1932  
Since 1 June cooling degree days 1302 1181  
Growing Degree Days 32 (Base 50)    
Moisture  
Dew Point 77 °F    
Average Humidity 83    
Maximum Humidity 91    
Minimum Humidity 80    
Precipitation  
Precipitation 0.39 in 0.28 in 2.60 in (1997)
Month to date precipitation 2.71 2.72  
Year to date precipitation 31.24 31.91  
Sea Level Pressure  
Sea Level Pressure 29.97 in    
Wind  
Wind Speed 7 mph (WNW)    
Max Wind Speed 21 mph    
Max Gust Speed 27 mph    
Visibility 8 miles    
Events Rain , Thunderstorm    
T = Trace of Precipitation, MM = Missing Value Source: NWS Daily Summary

Daily Weather History Graph

Daily Weather History Graph

Search for Another Location

Airport or City:

Astronomy

Aug. 10, 2019 Rise Set
Actual Time 6:58 AM EDT 8:12 PM EDT
Civil Twilight 6:33 AM EDT 8:36 PM EDT
Nautical Twilight 6:04 AM EDT 9:06 PM EDT
Astronomical Twilight 5:34 AM EDT 9:36 PM EDT
Moon 4:43 PM EDT (8/10) 2:41 AM EDT (8/10)
Length of Visible Light 14h 03m
Length of Day
13h 13m
Waxing Gibbous, 79% of the Moon is Illuminated
Aug 10
Waxing Gibbous
Aug 15
Full
Aug 23
Last Quarter
Aug 30
New
Sep 5
First Quarter

Hourly Weather History & Observations

Time (EDT) Temp. Heat Index Dew Point Humidity Pressure Visibility Wind Dir Wind Speed Gust Speed Precip Events Conditions
12:53 AM 84.9 °F 95.3 °F 77.0 °F 77% 29.97 in 10.0 mi WNW 8.1 mph - N/A   Clear
1:29 AM 84.9 °F 95.3 °F 77.0 °F 77% 29.97 in 10.0 mi West 9.2 mph - N/A   Mostly Cloudy
1:46 AM 84.9 °F 95.3 °F 77.0 °F 77% 29.96 in 10.0 mi West 8.1 mph - N/A   Mostly Cloudy
1:53 AM 84.9 °F 96.6 °F 78.1 °F 80% 29.96 in 10.0 mi West 8.1 mph - N/A   Mostly Cloudy
2:53 AM 82.9 °F 92.8 °F 78.1 °F 85% 29.93 in 10.0 mi NW 4.6 mph - 0.00 in   Scattered Clouds
3:53 AM 82.9 °F 92.8 °F 78.1 °F 85% 29.93 in 10.0 mi NW 5.8 mph - N/A   Scattered Clouds
4:53 AM 82.0 °F 91.0 °F 78.1 °F 88% 29.93 in 10.0 mi NNW 4.6 mph - N/A   Scattered Clouds
5:53 AM 82.0 °F 91.0 °F 78.1 °F 88% 29.94 in 10.0 mi NW 4.6 mph - N/A   Mostly Cloudy
6:53 AM 82.0 °F 90.2 °F 77.0 °F 85% 29.95 in 10.0 mi NW 4.6 mph - N/A   Clear
7:53 AM 84.9 °F 96.6 °F 78.1 °F 80% 29.96 in 10.0 mi West 8.1 mph - N/A   Partly Cloudy
8:53 AM 84.0 °F 96.0 °F 79.0 °F 85% 29.98 in 10.0 mi North 3.5 mph - 0.00 in Rain Light Rain
9:53 AM 86.0 °F 98.3 °F 78.1 °F 77% 29.99 in 10.0 mi WSW 4.6 mph - 0.00 in   Mostly Cloudy
10:02 AM 84.0 °F 93.7 °F 77.0 °F 79% 29.99 in 1.8 mi SW 6.9 mph - 0.08 in Rain Heavy Rain
10:12 AM 82.9 °F 92.8 °F 78.1 °F 85% 29.99 in 3.0 mi Calm Calm - 0.10 in Rain Light Rain
10:33 AM 82.0 °F 90.2 °F 77.0 °F 85% 30.00 in 10.0 mi East 6.9 mph - 0.10 in Thunderstorm Thunderstorm
10:53 AM 81.0 °F 87.9 °F 77.0 °F 88% 30.00 in 10.0 mi ESE 6.9 mph - 0.10 in Thunderstorm Thunderstorm
11:03 AM 81.0 °F 87.3 °F 75.9 °F 85% 30.00 in 2.5 mi North 5.8 mph - 0.06 in Rain Light Rain
11:10 AM 80.1 °F 85.4 °F 75.9 °F 87% 30.01 in 6.0 mi ESE 6.9 mph - 0.14 in Rain Heavy Rain
11:53 AM 82.0 °F 91.0 °F 78.1 °F 88% 30.01 in 10.0 mi ESE 3.5 mph - 0.14 in   Scattered Clouds
12:46 PM 84.0 °F 93.7 °F 77.0 °F 79% 30.01 in 10.0 mi WNW 18.4 mph 26.5 mph N/A Thunderstorm Thunderstorm
12:48 PM 82.4 °F 89.5 °F 75.2 °F 79% 30.01 in 1.5 mi WNW 18.4 mph 26.5 mph N/A Thunderstorm Unknown
12:53 PM 81.0 °F 86.2 °F 73.9 °F 79% 30.00 in 10.0 mi NNW 15.0 mph - N/A Thunderstorm Thunderstorm
12:56 PM 80.1 °F 84.5 °F 73.9 °F 81% 30.00 in 1.5 mi NNW 15.0 mph - N/A Thunderstorm Unknown
1:03 PM 78.1 °F - 75.0 °F 90% 30.00 in 2.5 mi NNW 8.1 mph - 0.06 in Rain , Thunderstorm Heavy Thunderstorms and Rain
1:19 PM 78.1 °F - 75.9 °F 93% 30.00 in 4.0 mi Calm Calm - 0.10 in Rain , Thunderstorm Light Thunderstorms and Rain
1:37 PM 80.1 °F 85.8 °F 77.0 °F 90% 30.00 in 4.0 mi Calm Calm - 0.14 in Rain , Thunderstorm Rain
1:49 PM 80.6 °F 88.1 °F 78.8 °F 94% 29.99 in 7.0 mi Calm Calm - 0.15 in Rain Light Rain
1:53 PM 81.0 °F 88.6 °F 78.1 °F 91% 29.99 in 10.0 mi Calm Calm - 0.15 in Rain Light Rain
2:33 PM 84.0 °F 96.0 °F 79.0 °F 85% 29.97 in 10.0 mi West 11.5 mph - 0.00 in   Mostly Cloudy
2:48 PM 84.2 °F 94.1 °F 77.0 °F 79% 29.97 in 10.0 mi West 13.8 mph - 0.00 in   Scattered Clouds
2:53 PM 84.0 °F 93.7 °F 77.0 °F 79% 29.97 in 10.0 mi West 11.5 mph 20.7 mph 0.00 in   Partly Cloudy
3:53 PM 84.0 °F 93.7 °F 77.0 °F 79% 29.96 in 10.0 mi West 8.1 mph - N/A   Clear
4:53 PM 84.0 °F 96.0 °F 79.0 °F 85% 29.94 in 10.0 mi West 5.8 mph - N/A   Clear
5:53 PM 84.9 °F 96.6 °F 78.1 °F 80% 29.92 in 10.0 mi West 9.2 mph - N/A   Partly Cloudy
6:53 PM 84.9 °F 97.5 °F 79.0 °F 82% 29.92 in 10.0 mi West 10.4 mph - N/A   Scattered Clouds
7:53 PM 84.9 °F 96.6 °F 78.1 °F 80% 29.93 in 10.0 mi WNW 12.7 mph - N/A   Scattered Clouds
8:40 PM 84.9 °F 95.3 °F 77.0 °F 77% 29.94 in 10.0 mi WNW 11.5 mph - N/A   Partly Cloudy
8:53 PM 84.9 °F 96.6 °F 78.1 °F 80% 29.95 in 10.0 mi NW 9.2 mph - N/A   Partly Cloudy
9:53 PM 84.9 °F 96.6 °F 78.1 °F 80% 29.96 in 10.0 mi WNW 10.4 mph - N/A   Clear
10:53 PM 82.9 °F 92.8 °F 78.1 °F 85% 29.96 in 10.0 mi WNW 5.8 mph - N/A   Partly Cloudy
11:53 PM 82.9 °F 92.8 °F 78.1 °F 85% 29.97 in 10.0 mi NW 4.6 mph - N/A   Clear